Regional Weather Roundup
Issued by NWS Green Bay, WI

Home | Current Version | Previous Version | Graphics & Text | Print | Product List | Glossary Off
Versions: 1 2 3 4 5 6 7 8 9 10 11 12 13 14 15 16 17 18 19 20 21 22 23 24 25 26 27 28 29 30 31 32 33 34 35 36 37 38 39 40 41 42 43 44 45 46 47 48 49 50

376
ASUS43 KGRB 170900
RWRGRB

NORTH-CENTRAL AND NORTHEAST WISCONSIN REGIONAL WEATHER ROUNDUP
NATIONAL WEATHER SERVICE GREEN BAY WI
400 AM CDT TUE OCT 17 2017

WIZ005-009-010>012-018-019-171000-
NORTH CENTRAL WISCONSIN

CITY           SKY/WX    TMP DP  RH WIND       PRES   REMARKS
IRONWOOD       CLOUDY    47  37  68 SW7       29.93R
MANITOWISH WTR NOT AVBL
ARBOR VITAE    NOT AVBL
EAGLE RIVER    NOT AVBL
LAND O LAKES   NOT AVBL
RHINELANDER    CLOUDY    45  37  73 SW9       29.96F
PHILLIPS       NOT AVBL
ANTIGO         NOT AVBL
TOMAHAWK       NOT AVBL
MERRILL        NOT AVBL
$$

WIZ013-073-171000-
NORTHEAST WISCONSIN

CITY           SKY/WX    TMP DP  RH WIND       PRES   REMARKS
IRON MOUNTAIN  CLEAR     50  35  56 W5        29.92F
MARINETTE      PTCLDY    49  37  63 SW7       29.97F
$$

WIZ017-030-035>037-045-171000-
CENTRAL WISCONSIN

CITY           SKY/WX    TMP DP  RH WIND       PRES   REMARKS
MEDFORD        NOT AVBL
WAUSAU         CLOUDY    46  37  71 CALM      29.98S
MOSINEE        NOT AVBL
MARSHFIELD     CLEAR     44  35  70 SW7       29.99F
WISC RAPIDS    CLEAR     48  39  71 SW8       30.01F
STEVENS POINT  NOT AVBL
WAUPACA        NOT AVBL
SHAWANO        NOT AVBL
CLINTONVILLE   NOT AVBL
WAUTOMA        CLEAR     36  35  96 CALM      30.04
$$

WIZ038-039-048-051-171000-
FOX VALLEY

CITY           SKY/WX    TMP DP  RH WIND       PRES   REMARKS
NWS GREEN BAY  PTCLDY    51  40  65 SW7       30.01F
APPLETON       NOT AVBL
OSHKOSH        PTCLDY    49  38  65 SW15      30.02F
FOND DU LAC    CLOUDY    52  36  54 SW12G23   30.04F
$$

WIZ022-050-052-171000-
EAST CENTRAL WISCONSIN

CITY           SKY/WX    TMP DP  RH WIND       PRES   REMARKS
EPHRAIM        NOT AVBL
WASHINGTON ISL NOT AVBL
STURGEON BAY   CLEAR     55  38  52 SW18G24   29.97F
MANITOWOC      MOCLDY    55  37  50 SW16G23   30.02F
SHEBOYGAN      CLOUDY    53  39  59 SW13      30.05F
$$

LMZ563-521-522-541>543-171000-
LAKESHORE

STATION/POSITION TIME  TEMP    WIND        PRES    VSBY  WAVE
                       AIR SEA DIR/SP/G                  HT/PER
                 (UTC) (F)     (DEG/KT/KT) (MB)    (MI)  (FT/S)
SHEBOYGAN LKSHOR 0800   51     210/  9/ 11 1018.3F
KEWAUNEE LKSHORE 0830   54     230/ 10/ 16 1015.3F
NORTHPORT PIER   0840   57     220/  6/ 15 1013.9F
N MID LAKE BUOY  0750   59 60  210/ 25/ 31 1015.2F         6/ 6
S GREEN BAY BUOY 0830   56 58  210/ 23/ 29 1014.7F
SISTER BAY LKSHO 0819   58     210/ 18/ 23   N/A
MENOMINEE LKSHOR 0824   52     220/ 12/ 18 1014.3
$$




USA.gov is the U.S. government's official web portal to all federal, state and local government web resources and services.